F4JFI-13 Weather Reports


time (UTC)temp
C
wind
direction
speed
KPH
gust
KPH
rain 1hr
cm
rain 24hr
cm
rain mn
cm
humidity
%
barometer
mb
20260831234208 15 322 0.0 0.0 0.00 0.00 0.00 88 1020.4
20260831233212 15 322 0.0 0.0 0.00 0.00 0.00 88 1020.4
20260831232208 15 322 0.0 0.0 0.00 0.00 0.00 88 1020.4
20260831231208 15 322 0.0 0.0 0.00 0.00 0.00 88 1020.4
20260831230208 15 322 0.0 0.0 0.00 0.00 0.00 86 1020.6
20260831225208 15 322 0.0 0.0 0.00 0.00 0.00 86 1020.4
20260831224208 16 322 0.0 0.0 0.00 0.00 0.00 86 1020.4
20260831223208 16 322 0.0 0.0 0.00 0.00 0.00 86 1020.4
20260831222209 16 322 0.0 0.0 0.00 0.00 0.00 86 1020.4
20260831221209 16 322 0.0 0.0 0.00 0.00 0.00 84 1020.4
20260831220209 16 322 0.0 0.0 0.03 0.00 0.00 84 1020.4
20260831215208 16 322 0.0 0.0 0.00 0.00 0.00 84 1020.2
20260831214208 16 322 0.0 0.0 0.00 0.00 0.00 82 1020.4
20260831213208 17 322 0.0 0.0 0.00 0.00 0.00 82 1020.4
20260831212208 17 322 0.0 0.0 0.00 0.00 0.00 82 1020.2
20260831211209 17 322 0.0 0.0 0.00 0.00 0.00 80 1020.2
20260831210209 17 322 0.0 0.0 0.00 0.00 0.00 80 1020.0
20260831205208 17 322 0.0 0.0 0.00 0.00 0.00 80 1020.0
20260831204209 18 322 0.0 0.0 0.00 0.00 0.00 78 1019.8
20260831203208 18 322 0.0 0.0 0.00 0.00 0.00 78 1019.8
20260831202208 18 322 0.0 0.0 0.00 0.00 0.00 78 1019.8
20260831201211 18 322 0.0 0.0 0.00 0.00 0.00 76 1019.6
20260831200209 20 322 0.0 0.0 0.00 0.00 0.00 74 1019.6
20260831195210 20 322 0.0 0.0 0.00 0.00 0.00 72 1019.6
20260831194208 21 322 0.0 0.0 0.00 0.00 0.00 70 1019.2
20260831193208 21 322 0.0 0.0 0.00 0.00 0.00 70 1019.2
20260831192215 22 322 0.0 0.0 0.00 0.00 0.00 66 1019.0
20260831191211 22 322 0.0 0.0 0.00 0.00 0.00 66 1019.0
20260831190209 22 322 0.0 0.0 0.00 0.00 0.00 64 1018.8
20260831185211 22 322 0.0 0.0 0.00 0.00 0.00 64 1018.8
20260831184208 23 290 0.0 0.0 0.00 0.00 0.00 60 1018.6
20260831183208 23 290 0.0 0.0 0.00 0.00 0.00 60 1018.6
20260831182208 23 222 1.6 0.0 0.00 0.00 0.00 60 1018.6
20260831181208 23 308 1.6 0.0 0.00 0.00 0.00 58 1018.6
20260831180208 24 266 0.0 0.0 0.00 0.00 0.00 56 1018.4
20260831175214 24 356 0.0 0.0 0.00 0.00 0.00 52 1018.4
20260831174208 24 356 0.0 0.0 0.00 0.00 0.00 52 1018.4
20260831173210 24 356 0.0 0.0 0.00 0.00 0.00 52 1018.2
20260831172208 24 198 1.6 0.0 0.00 0.00 0.00 52 1018.2
20260831171208 24 138 1.6 0.0 0.00 0.00 0.00 52 1018.4
20260831170209 24 28 0.0 0.0 0.00 0.00 0.00 52 1018.4
20260831165207 24 180 1.6 0.0 0.00 0.00 0.00 52 1018.2
20260831164208 25 360 1.6 0.0 0.00 0.00 0.00 52 1018.4
20260831163208 25 298 3.2 0.0 0.00 0.00 0.00 50 1018.4
20260831162208 25 318 3.2 0.0 0.00 0.00 0.00 50 1018.4
20260831161208 25 134 1.6 0.0 0.00 0.00 0.00 52 1018.4
20260831160210 26 324 1.6 0.0 0.00 0.00 0.00 52 1018.6
20260831155208 26 6 1.6 0.0 0.00 0.00 0.00 50 1018.6
20260831154208 26 174 1.6 0.0 0.00 0.00 0.00 54 1018.6
20260831153210 26 200 1.6 0.0 0.00 0.00 0.00 52 1018.6
20260831152209 26 298 4.8 0.0 0.00 0.00 0.00 54 1018.8
20260831151208 26 298 4.8 0.0 0.00 0.00 0.00 54 1018.8
20260831150208 26 298 4.8 0.0 0.00 0.00 0.00 52 1018.6
20260831145208 26 328 1.6 0.0 0.00 0.00 0.00 54 1018.8
20260831144208 26 202 3.2 0.0 0.00 0.00 0.00 54 1018.8
20260831143208 25 122 1.6 0.0 0.00 0.00 0.00 56 1019.0
20260831142208 25 270 3.2 0.0 0.00 0.00 0.00 58 1019.0
20260831141208 25 318 3.2 0.0 0.00 0.00 0.00 60 1019.0
20260831140208 25 208 3.2 0.0 0.00 0.00 0.00 58 1019.0
20260831135214 25 188 3.2 0.0 0.00 0.00 0.00 58 1019.2
20260831134208 25 188 3.2 0.0 0.00 0.00 0.00 58 1019.2
20260831133209 24 308 1.6 0.0 0.00 0.00 0.00 62 1019.2
20260831132208 24 300 4.8 0.0 0.00 0.00 0.00 64 1019.2
20260831131209 24 296 3.2 0.0 0.00 0.00 0.00 64 1019.4
20260831130211 24 298 1.6 0.0 0.00 0.00 0.00 64 1019.4
20260831125214 24 280 4.8 0.0 0.00 0.00 0.00 62 1019.4
20260831124208 24 280 4.8 0.0 0.00 0.00 0.00 62 1019.4
20260831123215 24 202 3.2 0.0 0.00 0.00 0.00 66 1019.4
20260831122214 24 202 3.2 0.0 0.00 0.00 0.00 66 1019.4
20260831121215 23 318 4.8 0.0 0.00 0.00 0.00 66 1019.6
20260831120214 23 294 3.2 0.0 0.00 0.00 0.00 66 1019.6
20260831115208 23 294 3.2 0.0 0.00 0.00 0.00 66 1019.6
20260831114208 23 342 3.2 0.0 0.00 0.00 0.00 68 1019.6
20260831113208 23 296 4.8 0.0 0.00 0.00 0.00 68 1019.8
20260831112208 23 268 3.2 0.0 0.00 0.00 0.00 68 1019.8
20260831111208 23 310 3.2 0.0 0.00 0.00 0.00 72 1019.8
20260831110208 23 310 3.2 0.0 0.00 0.00 0.00 72 1019.8
20260831105208 23 218 3.2 0.0 0.00 0.00 0.00 72 1019.6
20260831104208 23 204 1.6 0.0 0.00 0.00 0.00 72 1019.6
20260831103208 23 98 1.6 0.0 0.00 0.00 0.00 74 1019.4
20260831102208 22 342 3.2 0.0 0.00 0.00 0.00 76 1019.6
20260831101218 22 200 1.6 0.0 0.00 0.00 0.00 72 1019.6
20260831100209 22 238 1.6 0.0 0.00 0.00 0.00 74 1019.6
20260831095208 22 238 1.6 0.0 0.00 0.00 0.00 74 1019.6
20260831094208 22 190 3.2 0.0 0.00 0.00 0.00 76 1019.6
20260831093208 22 298 3.2 0.0 0.00 0.00 0.00 78 1019.6
20260831092208 21 292 3.2 0.0 0.00 0.00 0.00 80 1019.6
20260831091208 21 168 3.2 0.0 0.00 0.00 0.00 80 1019.6
20260831090208 21 138 1.6 0.0 0.00 0.00 0.00 82 1019.6
20260831085212 20 146 1.6 0.0 0.00 0.00 0.00 84 1019.6
20260831084208 20 200 1.6 0.0 0.00 0.00 0.00 84 1019.6
20260831083209 20 312 3.2 0.0 0.00 0.00 0.00 84 1019.4
20260831082208 20 312 3.2 0.0 0.00 0.00 0.00 84 1019.4
20260831081208 20 310 1.6 0.0 0.00 0.00 0.00 84 1019.4
20260831080208 20 146 1.6 0.0 0.03 0.00 0.00 84 1019.2
20260831075208 20 248 1.6 0.0 0.00 0.00 0.00 86 1019.2
20260831074208 18 132 0.0 0.0 0.00 0.00 0.00 86 1019.2
20260831073208 18 130 0.0 0.0 0.00 0.00 0.00 88 1019.0
20260831072208 17 130 0.0 0.0 0.00 0.00 0.00 90 1019.0
20260831071208 16 130 0.0 0.0 0.00 0.00 0.00 90 1019.0
20260831070208 15 130 0.0 0.0 0.00 0.00 0.00 92 1019.0
20260831065208 15 130 0.0 0.0 0.00 0.00 0.00 94 1018.8
20260831064208 14 130 0.0 0.0 0.00 0.00 0.00 94 1018.8
20260831063208 14 130 0.0 0.0 0.00 0.00 0.00 94 1018.8
20260831062208 14 130 0.0 0.0 0.00 0.00 0.00 94 1018.8
20260831061208 13 132 0.0 0.0 0.00 0.00 0.00 94 1018.8
20260831060209 13 132 0.0 0.0 0.00 0.00 0.00 94 1018.6
20260831055208 13 132 0.0 0.0 0.00 0.00 0.00 94 1018.6
20260831054208 13 132 0.0 0.0 0.00 0.00 0.00 94 1018.6
20260831053208 13 132 0.0 0.0 0.00 0.00 0.00 94 1018.6
20260831052208 13 132 0.0 0.0 0.00 0.00 0.00 94 1018.4
20260831051208 13 132 0.0 0.0 0.00 0.00 0.00 94 1018.2
20260831050208 13 132 0.0 0.0 0.00 0.00 0.00 94 1018.2
20260831045208 13 132 0.0 0.0 0.00 0.00 0.00 94 1018.2
20260831044208 13 132 0.0 0.0 0.00 0.00 0.00 94 1018.2
20260831043208 13 132 0.0 0.0 0.00 0.00 0.00 94 1018.0
20260831042208 13 132 0.0 0.0 0.00 0.00 0.00 94 1018.0
20260831041208 14 260 0.0 0.0 0.00 0.00 0.00 94 1018.0
20260831040209 14 260 0.0 0.0 0.00 0.00 0.00 94 1018.2
20260831035208 14 260 0.0 0.0 0.00 0.00 0.00 94 1018.2
20260831034208 14 260 0.0 0.0 0.00 0.00 0.00 94 1018.2
20260831033208 14 260 0.0 0.0 0.00 0.00 0.00 94 1018.2
20260831032208 14 260 0.0 0.0 0.00 0.00 0.00 94 1018.2
20260831031209 14 260 0.0 0.0 0.00 0.00 0.00 94 1018.2
20260831030208 14 260 0.0 0.0 0.00 0.00 0.00 94 1018.2
20260831025208 14 260 0.0 0.0 0.00 0.00 0.00 94 1018.2
20260831024208 14 260 0.0 0.0 0.00 0.00 0.00 94 1018.2
20260831023208 14 260 0.0 0.0 0.00 0.00 0.00 94 1018.2
20260831022208 14 260 0.0 0.0 0.00 0.00 0.00 94 1018.2
20260831021208 14 260 0.0 0.0 0.00 0.00 0.00 94 1018.2
20260831020208 14 260 0.0 0.0 0.00 0.00 0.00 94 1018.2
20260831015209 14 260 0.0 0.0 0.00 0.00 0.00 94 1018.2
20260831014209 14 260 0.0 0.0 0.00 0.00 0.00 94 1018.2
20260831013207 14 260 0.0 0.0 0.00 0.00 0.00 94 1018.2
20260831012208 14 260 0.0 0.0 0.00 0.00 0.00 94 1018.0
20260831011208 15 260 0.0 0.0 0.00 0.00 0.00 92 1018.0
20260831010208 15 260 0.0 0.0 0.00 0.00 0.00 92 1018.0
20260831005208 15 260 0.0 0.0 0.00 0.00 0.00 94 1018.0
20260831004208 15 260 0.0 0.0 0.00 0.00 0.00 92 1018.0
20260831003208 15 260 0.0 0.0 0.00 0.00 0.00 92 1018.0
20260831002207 15 260 0.0 0.0 0.00 0.00 0.00 92 1017.8
20260831001208 15 260 0.0 0.0 0.00 0.00 0.00 92 1018.0
20260831000208 15 260 0.0 0.0 0.00 0.00 0.00 92 1018.0
20260830235209 15 260 0.0 0.0 0.00 0.00 0.00 92 1017.8